TimeCST,TemperatureF,Dew PointF,Humidity,Sea Level PressureIn,VisibilityMPH,Wind Direction,Wind SpeedMPH,Gust SpeedMPH,PrecipitationIn,Events,Conditions,WindDirDegrees,DateUTC
12:15 AM,28.4,21.2,74,30.16,10.0,WNW,3.5,-,N/A,,Clear,290,2013-11-05 06:15:00
12:35 AM,28.4,21.2,74,30.16,10.0,WNW,3.5,-,N/A,,Clear,300,2013-11-05 06:35:00
12:55 AM,28.4,21.2,74,30.16,10.0,NW,6.9,-,N/A,,Clear,310,2013-11-05 06:55:00
1:15 AM,28.4,21.2,74,30.17,10.0,West,3.5,-,N/A,,Clear,280,2013-11-05 07:15:00
1:35 AM,30.2,21.2,69,30.17,10.0,Calm,Calm,-,N/A,,Clear,0,2013-11-05 07:35:00
1:55 AM,30.2,19.4,64,30.17,10.0,Calm,Calm,-,N/A,,Clear,0,2013-11-05 07:55:00
2:15 AM,30.2,21.2,69,30.17,10.0,Calm,Calm,-,N/A,,Clear,0,2013-11-05 08:15:00
2:35 AM,30.2,19.4,64,30.17,10.0,Calm,Calm,-,N/A,,Clear,0,2013-11-05 08:35:00
2:55 AM,26.6,17.6,69,30.17,10.0,Calm,Calm,-,N/A,,Clear,0,2013-11-05 08:55:00
3:15 AM,28.4,19.4,69,30.17,10.0,Calm,Calm,-,N/A,,Clear,0,2013-11-05 09:15:00
3:35 AM,28.4,19.4,69,30.18,10.0,Calm,Calm,-,N/A,,Clear,0,2013-11-05 09:35:00
3:55 AM,30.2,21.2,69,30.18,10.0,Calm,Calm,-,N/A,,Clear,0,2013-11-05 09:55:00
4:15 AM,28.4,19.4,69,30.18,10.0,Calm,Calm,-,N/A,,Clear,0,2013-11-05 10:15:00
4:35 AM,26.6,19.4,74,30.19,10.0,Calm,Calm,-,N/A,,Clear,0,2013-11-05 10:35:00
4:55 AM,28.4,19.4,69,30.20,10.0,Calm,Calm,-,N/A,,Clear,0,2013-11-05 10:55:00
5:15 AM,26.6,19.4,74,30.19,10.0,NE,3.5,-,N/A,,Clear,40,2013-11-05 11:15:00
5:35 AM,26.6,17.6,69,30.18,10.0,NNE,3.5,-,N/A,,Scattered Clouds,30,2013-11-05 11:35:00
5:55 AM,26.6,19.4,74,30.18,10.0,Calm,Calm,-,N/A,,Overcast,0,2013-11-05 11:55:00
6:15 AM,28.4,19.4,69,30.17,10.0,NNE,3.5,-,N/A,,Overcast,20,2013-11-05 12:15:00
6:35 AM,26.6,19.4,74,30.18,10.0,North,4.6,-,N/A,,Overcast,10,2013-11-05 12:35:00
6:55 AM,26.6,19.4,74,30.18,10.0,North,5.8,-,N/A,,Mostly Cloudy,10,2013-11-05 12:55:00
7:15 AM,28.4,19.4,69,30.17,10.0,NNE,5.8,-,N/A,,Mostly Cloudy,30,2013-11-05 13:15:00
7:35 AM,30.2,21.2,69,30.18,10.0,NNE,5.8,-,N/A,,Overcast,30,2013-11-05 13:35:00
7:55 AM,30.2,21.2,69,30.19,10.0,ENE,3.5,-,N/A,,Overcast,70,2013-11-05 13:55:00
8:15 AM,30.2,21.2,69,30.19,10.0,ENE,4.6,-,N/A,,Scattered Clouds,70,2013-11-05 14:15:00
8:35 AM,30.2,23.0,75,30.20,10.0,NNE,4.6,-,N/A,,Mostly Cloudy,30,2013-11-05 14:35:00
8:55 AM,33.8,23.0,65,30.19,10.0,North,9.2,-,N/A,,Overcast,10,2013-11-05 14:55:00
9:15 AM,33.8,23.0,65,30.19,10.0,North,8.1,-,N/A,,Overcast,10,2013-11-05 15:15:00
9:35 AM,33.8,24.8,70,30.19,10.0,NNE,9.2,-,N/A,,Overcast,20,2013-11-05 15:35:00
9:55 AM,33.8,24.8,70,30.19,10.0,NNE,8.1,-,N/A,,Overcast,20,2013-11-05 15:55:00
10:15 AM,33.8,24.8,70,30.21,10.0,NE,5.8,-,N/A,,Overcast,40,2013-11-05 16:15:00
10:35 AM,33.8,24.8,70,30.21,10.0,NE,8.1,-,N/A,,Overcast,40,2013-11-05 16:35:00
10:55 AM,35.6,24.8,65,30.20,10.0,NE,9.2,-,N/A,,Overcast,40,2013-11-05 16:55:00
11:15 AM,35.6,24.8,65,30.21,10.0,NE,8.1,-,N/A,,Overcast,50,2013-11-05 17:15:00
11:35 AM,35.6,24.8,65,30.19,10.0,NE,9.2,-,N/A,,Overcast,50,2013-11-05 17:35:00
11:55 AM,35.6,24.8,65,30.16,10.0,NE,11.5,-,N/A,,Overcast,50,2013-11-05 17:55:00
12:15 PM,35.6,24.8,65,30.15,10.0,NNE,11.5,-,N/A,,Overcast,20,2013-11-05 18:15:00
12:35 PM,35.6,26.6,70,30.14,10.0,NNE,11.5,-,N/A,,Overcast,30,2013-11-05 18:35:00
12:55 PM,35.6,24.8,65,30.12,10.0,NNE,13.8,-,N/A,,Overcast,30,2013-11-05 18:55:00
1:15 PM,35.6,24.8,65,30.11,10.0,NNE,12.7,-,N/A,,Overcast,20,2013-11-05 19:15:00
1:35 PM,35.6,24.8,65,30.09,10.0,NNE,12.7,-,N/A,,Overcast,20,2013-11-05 19:35:00
1:55 PM,35.6,24.8,65,30.08,10.0,NNE,13.8,-,N/A,,Overcast,20,2013-11-05 19:55:00
2:15 PM,35.6,23.0,60,30.06,10.0,NNE,16.1,20.7,N/A,,Overcast,20,2013-11-05 20:15:00
2:35 PM,35.6,23.0,60,30.06,10.0,NNE,13.8,20.7,N/A,,Overcast,20,2013-11-05 20:35:00
2:55 PM,35.6,24.8,65,30.07,5.0,NNE,16.1,19.6,N/A,,Overcast,20,2013-11-05 20:55:00
3:15 PM,33.8,24.8,70,30.06,1.8,NNE,18.4,-,N/A,,Overcast,20,2013-11-05 21:15:00
3:35 PM,33.8,24.8,70,30.04,1.8,NNE,18.4,24.2,N/A,,Overcast,30,2013-11-05 21:35:00
3:55 PM,33.8,24.8,70,30.03,1.5,NNE,20.7,26.5,N/A,,Overcast,30,2013-11-05 21:55:00
4:15 PM,32.0,24.8,75,30.03,1.0,NNE,18.4,-,N/A,,Overcast,20,2013-11-05 22:15:00
4:35 PM,30.2,24.8,80,30.02,1.2,NNE,21.9,27.6,N/A,,Overcast,30,2013-11-05 22:35:00
4:55 PM,30.2,24.8,80,30.02,1.5,NE,21.9,26.5,N/A,,Overcast,40,2013-11-05 22:55:00
5:15 PM,32.0,26.6,80,30.01,0.8,NE,25.3,-,N/A,,Overcast,40,2013-11-05 23:15:00
5:35 PM,32.0,26.6,80,30.03,0.8,NNE,19.6,-,N/A,,Overcast,30,2013-11-05 23:35:00
5:55 PM,32.0,26.6,80,30.02,1.2,NNE,13.8,-,N/A,,Overcast,20,2013-11-05 23:55:00
6:15 PM,32.0,26.6,80,30.03,1.8,North,15.0,-,0.01,,Overcast,10,2013-11-06 00:15:00
6:35 PM,32.0,26.6,80,30.02,1.0,North,17.3,23.0,0.02,,Overcast,10,2013-11-06 00:35:00
6:55 PM,32.0,26.6,80,30.02,1.2,North,16.1,-,0.02,,Overcast,10,2013-11-06 00:55:00
7:15 PM,32.0,26.6,80,30.02,1.8,North,17.3,-,0.01,,Overcast,10,2013-11-06 01:15:00
7:35 PM,30.2,24.8,80,30.03,2.0,North,17.3,-,0.01,,Overcast,360,2013-11-06 01:35:00
7:55 PM,30.2,24.8,80,30.02,1.8,North,18.4,-,0.01,,Overcast,360,2013-11-06 01:55:00
8:15 PM,30.2,24.8,80,30.03,1.8,North,16.1,-,N/A,,Overcast,360,2013-11-06 02:15:00
8:35 PM,30.2,24.8,80,30.03,2.0,North,17.3,-,N/A,,Overcast,360,2013-11-06 02:35:00
8:55 PM,30.2,24.8,80,30.04,1.8,North,16.1,-,N/A,,Overcast,360,2013-11-06 02:55:00
9:15 PM,30.2,24.8,80,30.04,1.8,North,17.3,-,N/A,,Overcast,360,2013-11-06 03:15:00
9:35 PM,30.2,24.8,80,30.03,1.5,North,18.4,-,N/A,,Overcast,360,2013-11-06 03:35:00
9:55 PM,30.2,24.8,80,30.04,2.0,North,18.4,-,N/A,,Overcast,360,2013-11-06 03:55:00
10:15 PM,30.2,24.8,80,30.05,3.0,North,19.6,-,N/A,,Overcast,360,2013-11-06 04:15:00
10:35 PM,30.2,24.8,80,30.05,2.5,North,21.9,-,N/A,,Overcast,360,2013-11-06 04:35:00
10:55 PM,30.2,24.8,80,30.04,3.0,North,23.0,29.9,N/A,,Overcast,350,2013-11-06 04:55:00
11:15 PM,28.4,23.0,80,30.04,3.0,North,23.0,28.8,N/A,,Overcast,350,2013-11-06 05:15:00
11:35 PM,28.4,23.0,80,30.05,4.0,North,24.2,29.9,N/A,,Overcast,350,2013-11-06 05:35:00
11:55 PM,28.4,23.0,80,30.05,5.0,North,25.3,-,N/A,,Overcast,350,2013-11-06 05:55:00